Погода в Чивриле

Турция     38°18′04″N   29°44′19″E
темп.,
°C
ветер,
м/с
пор.,
м/с
влажн.,
%
обл.,
%
осадки,
мм/ч
давл.,
гПа
погр.,
м
19 апреля, пн
пн1900:00+14св336142 0.0 101852
03:00+14св226482 0.0 101626
06:00+13св2262100 0.0 101612
09:00+16в1151100 0.0 1014217
12:00+18вюв1246100 0.0 1012853
15:00+21з7936100 0.0 10091027
18:00+16ссз3363100 0.1 1009370
21:00+11сз6868100 0.1 1013535
20 апреля, вт
вт2000:00+11всв016480 0.0 1012140
03:00+8зюз00783 0.0 101110
06:00+7сз00850 0.0 101110
09:00+12ююз23570 0.0 1012758
12:00+16з68210 0.0 10122097
15:00+17з79230 0.0 10122211
18:00+15з78270 0.0 10122035
21:00+10сз49570 0.0 1015233
21 апреля, ср
ср2100:00+7сз326756 0.0 101736
03:00+5ссз11660 0.0 101710
06:00+5с116843 0.0 101810
09:00+9зсз12430 0.0 1019566
12:00+14з33270 0.0 10181442
15:00+16зсз4422100 0.0 10172214
18:00+15сз4424100 0.0 10161686
21:00+11ссз35425 0.0 101999
22 апреля, чт
чт2200:00+8ссз225237 0.0 101910
03:00+7ссз1157100 0.0 102010
06:00+6ссв22595 0.0 102010
09:00+11сз01446 0.0 1020371
12:00+15з213098 0.0 10201537
15:00+18з33222 0.0 10182257
18:00+18сз432326 0.0 10181966
21:00+12ссз22340 0.0 101910
23 апреля, пт
пт2300:00+9ссв11419 0.0 102010
03:00+8всв11445 0.0 101910
06:00+8всв224399 0.0 101810
09:00+14юв1132100 0.0 1018286
12:00+18юз3425100 0.0 10171241
15:00+21з61123100 0.0 10162223
18:00+18зсз673328 0.0 10161172
21:00+13сз345368 0.0 101847